2023/12/29 00:00:00, 1.5, 4.3
2023/12/29 00:10:00, 1.5, 4.1
2023/12/29 00:20:00, 1.6, 4.2
2023/12/29 00:30:00, 1.6, 4.4
2023/12/29 00:40:00, 1.6, 4.1
2023/12/29 00:50:00, 1.5, 4.0
2023/12/29 01:00:00, 1.6, 4.0
2023/12/29 01:10:00, 1.6, 4.1
2023/12/29 01:20:00, 1.4, 4.0
2023/12/29 01:30:00, 1.5, 4.0
2023/12/29 01:40:00, 1.5, 4.1
2023/12/29 01:50:00, 1.5, 3.7
2023/12/29 02:00:00, 1.4, 4.0
2023/12/29 02:10:00, 1.4, 3.6
2023/12/29 02:20:00, 1.4, 4.0
2023/12/29 02:30:00, 1.4, 3.8
2023/12/29 02:40:00, 1.4, 3.9
2023/12/29 02:50:00, 1.4, 3.9
2023/12/29 03:00:00, 1.3, 3.8
2023/12/29 03:10:00, 1.3, 3.7
2023/12/29 03:20:00, 1.3, 3.8
2023/12/29 03:30:00, 1.4, 3.7
2023/12/29 03:40:00, 1.3, 3.4
2023/12/29 03:50:00, 1.4, 3.5
2023/12/29 04:00:00, 1.3, 3.9
2023/12/29 04:10:00, 1.3, 3.9
2023/12/29 04:20:00, 1.3, 3.8
2023/12/29 04:30:00, 1.2, 3.8
2023/12/29 04:40:00, 1.1, 3.6
2023/12/29 04:50:00, 1.2, 3.6
2023/12/29 05:00:00, 1.1, 3.9
2023/12/29 05:10:00, 1.1, 3.6
2023/12/29 05:20:00, 1.0, 3.6
2023/12/29 05:30:00, 1.0, 3.0
2023/12/29 05:40:00, 1.0, 3.5
2023/12/29 05:50:00, 1.0, 3.5
2023/12/29 06:00:00, 1.0, 3.5
2023/12/29 06:10:00, 1.0, 3.5
2023/12/29 06:20:00, 1.0, 3.4
2023/12/29 06:30:00, 1.1, 3.7
2023/12/29 06:40:00, 1.3, 3.6
2023/12/29 06:50:00, 1.3, 3.7
2023/12/29 07:00:00, 1.3, 3.7
2023/12/29 07:10:00, 1.3, 3.5
2023/12/29 07:20:00, 1.2, 3.3
2023/12/29 07:30:00, 1.0, 3.4
2023/12/29 07:40:00, 1.1, 3.5
2023/12/29 07:50:00, 1.0, 3.5
2023/12/29 08:00:00, 1.0, 3.4
2023/12/29 08:10:00, 0.9, 3.5
2023/12/29 08:20:00, 0.8, 3.5
2023/12/29 08:30:00, 0.7, 3.9
2023/12/29 08:40:00, 0.6, 3.9
2023/12/29 08:50:00, 0.7, 4.1
2023/12/29 09:00:00, 0.5, 4.3
2023/12/29 09:10:00, 0.4, 4.6
2023/12/29 09:20:00, 0.3, 4.3
2023/12/29 09:30:00, 0.2, 4.6
2023/12/29 09:40:00, 0.3, 4.9
2023/12/29 09:50:00, 0.3, 5.3
2023/12/29 10:00:00, 0.3, 5.3
2023/12/29 10:10:00, 0.2, 5.2
2023/12/29 10:20:00, 0.1, 5.1
2023/12/29 10:30:00, 0.1, 5.3
2023/12/29 10:40:00, 0.0, 5.3
2023/12/29 10:50:00, 0.0, 5.7
2023/12/29 11:00:00, 0.0, 6.8
2023/12/29 11:10:00, 0.0, 7.0
2023/12/29 11:20:00, 0.0, 6.7
2023/12/29 11:30:00, 0.0, 6.6
2023/12/29 11:40:00, 0.0, 6.7
2023/12/29 11:50:00, 0.0, 6.8
2023/12/29 12:00:00, 0.0, 7.9
2023/12/29 12:10:00, 0.0, 8.9
2023/12/29 12:20:00, 0.0, 8.2
2023/12/29 12:30:00, 0.0, 7.8
2023/12/29 12:40:00, 0.0, 7.8
2023/12/29 12:50:00, 0.0, 7.8
2023/12/29 13:00:00, 0.0, 7.9
2023/12/29 13:10:00, 0.0, 8.5
2023/12/29 13:20:00, 0.0, 8.6
2023/12/29 13:30:00, 0.0, 8.2
2023/12/29 13:40:00, 0.0, 8.3
2023/12/29 13:50:00, 0.0, 8.1
2023/12/29 14:00:00, 0.0, 8.0
2023/12/29 14:10:00, 0.0, 8.0
2023/12/29 14:20:00, 0.0, 8.1
2023/12/29 14:30:00, 0.0, 8.0
2023/12/29 14:40:00, 0.0, 7.8
2023/12/29 14:50:00, 0.0, 8.3
2023/12/29 15:00:00, 0.0, 7.8
2023/12/29 15:10:00, 0.0, 7.6
2023/12/29 15:20:00, 0.0, 6.5
2023/12/29 15:30:00, 0.0, 6.3
2023/12/29 15:40:00, 0.0, 6.4
2023/12/29 15:50:00, 0.0, 6.0
2023/12/29 16:00:00, 0.0, 5.6
2023/12/29 16:10:00, 0.0, 5.4
2023/12/29 16:20:00, 0.0, 4.9
2023/12/29 16:30:00, 0.0, 4.8
2023/12/29 16:40:00, 0.0, 4.3
2023/12/29 16:50:00, 0.0, 4.1
2023/12/29 17:00:00, 0.0, 3.6
2023/12/29 17:10:00, 0.0, 3.2
2023/12/29 17:20:00, 0.0, 3.0
2023/12/29 17:30:00, 0.1, 2.8
2023/12/29 17:40:00, 0.1, 2.4
2023/12/29 17:50:00, 0.1, 2.4
2023/12/29 18:00:00, 0.2, 1.9
2023/12/29 18:10:00, 0.0, 1.8
2023/12/29 18:20:00, 0.2, 1.8
2023/12/29 18:30:00, 0.3, 1.7
2023/12/29 18:40:00, 0.4, 1.4
2023/12/29 18:50:00, 0.7, 1.2
2023/12/29 19:00:00, 0.6, 1.4
2023/12/29 19:10:00, 0.6, 1.4
2023/12/29 19:20:00, 0.7, 1.5
2023/12/29 19:30:00, 0.9, 1.1
2023/12/29 19:40:00, 1.0, 0.8
2023/12/29 19:50:00, 0.8, 0.8
2023/12/29 20:00:00, 0.4, 0.8
2023/12/29 20:10:00, 0.7, 0.7
2023/12/29 20:20:00, 0.8, 0.7
2023/12/29 20:30:00, 1.1, 0.7
2023/12/29 20:40:00, 1.2, 0.5
2023/12/29 20:50:00, 1.4, 0.4
2023/12/29 21:00:00, 1.3, 0.6
2023/12/29 21:10:00, 1.6, 0.6
2023/12/29 21:20:00, 1.6, 0.3
2023/12/29 21:30:00, 1.8, 0.4
2023/12/29 21:40:00, 1.8, 0.6
2023/12/29 21:50:00, 1.6, 0.5
2023/12/29 22:00:00, 1.7, 0.5
2023/12/29 22:10:00, 1.6, 0.1
2023/12/29 22:20:00, 1.6, 0.1
2023/12/29 22:30:00,89.4, 0.7
2023/12/29 22:40:00,107.7, 0.3
2023/12/29 22:50:00,---, 0.2
2023/12/29 23:00:00,---,-0.1
2023/12/29 23:10:00,---, 0.3
2023/12/29 23:20:00,---, 0.0
2023/12/29 23:30:00,---,-0.1
2023/12/29 23:40:00,---, 0.0
2023/12/29 23:50:00,---, 0.0
